STARLINK-1848, 46740

Orbit data source: Space-Track

STARLINK-1848, 46740 is a payload satellite owned by SpaceX/Seattle (US) in LEO that was launched on Sat, 24 Oct 2020 UTC via an FALCON 9 launch vehicle from the Air Force Eastern Test Range (AFETR). Payload-class satellites include a variety of spacecraft equipped with specific instruments for various scientific and technological missions. These include communications satellites like Starlink; space stations such as the ISS; scientific satellites like the Hubble; Earth observation satellites from companies like Planet Labs, Umbra, and HawkEye 360; GPS; miniature CubeSats for education and research; and military/defense satellites.

Loading next visibility...
Identifier
46740, 2020-074B
Orbit
LEO
Country
Flag of USUS
Related business
Manufacturer
SpaceX/Seattle
Mission
Partially operational Commercial Communications
Bus & Motor
STARLINK, Unknown motor
Mass
260 kg wet, ~248 kg dry
Launch date (UTC)
2020-10-24 (5 years ago)
Launch vehicle
FALCON 9
Launch site
Air Force Eastern Test Range (AFETR)
Object type
Payload
Rocket body
Debris
Shape & HBR
Box + 1 Pan, 4.4 m
Radar Cross Section
13.562 m², Large (>1 m²)

Expand to show TLE details & history
Last TLE update: 1 day ago

TLE from 1 day ago
0 STARLINK-1848
1 46740U 20074B   25260.00002315  .00094813  00000-0  25468-2 0  9992
2 46740  53.0539  20.6575 0006227 289.1611 350.7980 15.37143678  5842
Epoch: 2025-09-17T00:00Z
TLE epoch observation values (Epoch: 2025-09-17T00:00:02Z)
Latitude
-52.08274°
Longitude
-49.30289°
Altitude
468.416 km
Speed
7.634 km/s
True Right ascension
20h 27m 33s
True Declination
-51° 54' 32"
Sunlit
Object was in full shadow at epoch
Visualization orbit readout
Latitude
Unknown
Longitude
Unknown
Altitude
Unknown
Speed
Unknown
Apparent Right ascension
Unknown
Apparent Declination
Unknown
Sunlit
N/A
Visualization observer readout
Local Sidereal Time
20:50:26
Azimuth
Unknown
Elevation
Unknown
Doppler factor
Unknown
Orbital elements
Apogee altitude
459.09 km
Perigee altitude
450.58 km
Semi-major axis
6,832.972 km
Eccentricity
0.00062
Inclination
53.0539°
RAAN
20.6575°
Arg. of periapsis
289.1611°
True anomaly
350.78658°
Mean anomaly
350.798°
Eccentric anomaly
350.79229°
Mean motion
3.84263 °/min
Orbital period
93.69 mins
BSTAR
0.0025468
Loading maneuver chart data...
Computing Atmospheric mass density...

Documentation

Showing up to 5 results
|